Location: Lecco
(45.8566°N, 9.3977°E)
Time: 10:45:44
(UTC+02:00)

Altair - All Passes

Search period start: 14 August 2020 00:00
Search period end: 24 August 2020 00:00
Orbit: 1501 x 1682 km, 47.2° (Epoch: 13 August)

Date Brightness Start Highest point End Pass type
(mag) Time Alt. Az. Time Alt. Az. Time Alt. Az.
14 Aug - 01:21:20 10° S 01:29:06 28° SE 01:36:39 10° E visible
14 Aug - 03:23:06 10° SW 03:32:43 69° SSE 03:41:58 10° ENE visible
14 Aug - 05:27:52 10° W 05:37:27 83° N 05:46:44 10° E visible
14 Aug - 07:32:59 10° WNW 07:42:23 82° SSW 07:51:33 10° ESE daylight
14 Aug - 09:38:01 10° WNW 09:46:17 39° SW 09:54:30 10° SSE daylight
15 Aug - 00:56:34 10° S 01:04:03 25° SE 01:11:20 10° E visible
15 Aug - 02:57:58 10° SW 03:07:34 65° SSE 03:16:48 10° ENE visible
15 Aug - 05:02:37 10° W 05:12:15 84° N 05:21:34 10° E visible
15 Aug - 07:07:47 10° WNW 07:17:13 85° SSW 07:26:25 10° ESE daylight
15 Aug - 09:12:46 10° WNW 09:21:14 42° SW 09:29:35 10° SSE daylight
15 Aug - 11:22:38 10° WSW 11:23:50 10° WSW 11:25:01 10° SW daylight
16 Aug - 00:31:50 10° S 00:39:00 23° SE 00:45:58 10° E visible
16 Aug - 02:32:51 10° SW 02:42:26 62° SSE 02:51:38 10° ENE visible
16 Aug - 04:37:23 10° W 04:47:03 85° N 04:56:23 10° E visible
16 Aug - 06:42:34 10° WNW 06:52:03 87° SSW 07:01:16 10° ESE daylight
16 Aug - 08:47:33 10° WNW 08:56:10 45° SW 09:04:39 10° SSE daylight
16 Aug - 10:55:48 10° WSW 10:58:52 12° WSW 11:01:55 10° SW daylight
17 Aug - 00:07:11 10° S 00:13:57 21° SE 00:20:34 10° E visible
17 Aug - 02:07:45 10° SW 02:17:17 59° SSE 02:26:28 10° ENE visible
17 Aug - 04:12:09 10° W 04:21:52 86° N 04:31:13 10° E visible
17 Aug - 06:17:21 10° WNW 06:26:53 89° SSW 06:36:07 10° ESE daylight
17 Aug - 08:22:19 10° WNW 08:31:05 48° SW 08:39:42 10° SSE daylight
17 Aug - 10:29:47 10° W 10:33:53 14° SW 10:37:59 10° SSW daylight
17 Aug - 23:42:35 10° SSE 23:48:55 19° SE 23:55:07 10° E visible
18 Aug - 01:42:40 10° SW 01:52:09 56° SSE 02:01:18 10° ENE visible
18 Aug - 03:46:55 10° WSW 03:56:40 87° NNW 04:06:03 10° E visible
18 Aug - 05:52:08 10° WNW 06:01:42 89° NNE 06:10:58 10° ESE visible
18 Aug - 07:57:06 10° WNW 08:06:00 51° SW 08:14:43 10° SE daylight
18 Aug - 10:04:01 10° W 10:08:54 16° SW 10:13:46 10° SSW daylight
18 Aug - 23:18:05 10° SSE 23:23:53 17° SE 23:29:35 10° E visible
19 Aug - 01:17:35 10° SW 01:27:02 53° SE 01:36:08 10° ENE visible
19 Aug - 03:21:40 10° WSW 03:31:28 89° NNW 03:40:53 10° ENE visible
19 Aug - 05:26:54 10° W 05:36:31 87° NNE 05:45:48 10° ESE visible
19 Aug - 07:31:53 10° WNW 07:40:54 54° SW 07:49:43 10° SE daylight
19 Aug - 09:38:24 10° W 09:43:54 18° SW 09:49:23 10° SSW daylight
19 Aug - 22:53:41 10° SSE 22:58:52 16° SE 23:03:57 10° E visible
20 Aug - 00:52:32 10° SW 01:01:54 50° SE 01:10:57 10° ENE visible
20 Aug - 02:56:27 10° WSW 03:06:17 89° SSE 03:15:43 10° ENE visible
20 Aug - 05:01:40 10° W 05:11:20 86° N 05:20:38 10° E visible
20 Aug - 07:06:40 10° WNW 07:15:48 58° SSW 07:24:42 10° SE daylight
20 Aug - 09:12:52 10° W 09:18:55 20° SW 09:24:54 10° S daylight
20 Aug - 22:29:27 10° SSE 22:33:51 14° ESE 22:38:11 10° E visible
21 Aug - 00:27:31 10° SSW 00:36:47 47° SE 00:45:45 10° ENE visible
21 Aug - 02:31:14 10° WSW 02:41:05 87° SSE 02:50:33 10° ENE visible
21 Aug - 04:36:26 10° W 04:46:07 85° N 04:55:28 10° E visible
21 Aug - 06:41:27 10° WNW 06:50:42 61° SSW 06:59:40 10° SE daylight
21 Aug - 08:47:24 10° W 08:53:54 22° SW 09:00:21 10° S daylight
21 Aug - 22:05:29 10° SE 22:08:50 12° ESE 22:12:09 10° ESE visible
22 Aug - 00:02:30 10° SSW 00:11:41 44° SE 00:20:33 10° ENE visible
22 Aug - 02:06:01 10° WSW 02:15:54 85° SSE 02:25:23 10° ENE visible
22 Aug - 04:11:13 10° W 04:20:55 84° N 04:30:17 10° E visible
22 Aug - 06:16:15 10° WNW 06:25:35 64° SSW 06:34:37 10° SE daylight
22 Aug - 08:21:59 10° W 08:28:53 24° SW 08:35:42 10° S daylight
22 Aug - 21:42:17 10° SE 21:43:50 10° ESE 21:45:24 10° ESE visible
22 Aug - 23:37:32 10° SSW 23:46:35 41° SE 23:55:20 10° ENE visible
23 Aug - 01:40:48 10° WSW 01:50:42 83° SSE 02:00:13 10° ENE visible
23 Aug - 03:45:58 10° W 03:55:44 83° N 04:05:06 10° E visible
23 Aug - 05:51:03 10° WNW 06:00:27 68° SSW 06:09:33 10° SE visible
23 Aug - 07:56:37 10° W 08:03:52 26° SW 08:11:01 10° S daylight
23 Aug - 23:12:34 10° SSW 23:21:29 38° SE 23:30:06 10° ENE visible
